Showing default

ALCOMSAT 1, 43039

Orbit data source: Space-Track

ALCOMSAT 1, 43039 is a payload satellite owned by ASAL (DZ) in GEO that was launched on Sun, 10 Dec 2017 UTC via a CHANG ZHENG 3B launch vehicle from the Xichang Space Center, China (XSC). Payload-class satellites include a variety of spacecraft equipped with specific instruments for various scientific and technological missions. These include communications satellites like Starlink; space stations such as the ISS; scientific satellites like the Hubble; Earth observation satellites from companies like Planet Labs, Umbra, and HawkEye 360; GPS; miniature CubeSats for education and research; and military/defense satellites.

Not visible in the next 10 days
Identifier
43039, 2017-078A
Orbit
GEO
Country
Flag of DZDZ / ALG
Related business
Manufacturer
CAST
Mission
Operational Civil Communications
Bus & Motor
DFH-4, DFH-4 LAE
Mass
5,200 kg wet, ~2,500 kg dry
Launch date (UTC)
2017-12-10 (9 years ago)
Launch vehicle
CHANG ZHENG 3B
Launch site
Xichang Space Center, China (XSC)
Object type
Payload
Rocket body
Debris
Shape & HBR
Box + 2 Pan, 15.0 m
Radar Cross Section
34.063 m², Large (>1 m²)

Expand to show TLE details & history
Last TLE update: 2 days ago

TLE from 2 days ago
0 ALCOMSAT 1
1 43039U 17078A   26171.38704380 -.00000191  00000-0  00000+0 0  9993
2 43039   0.0229 269.2124 0002328 172.6670 301.2401  1.00272414 31325
Epoch: 2026-06-20T09:17Z
TLE epoch observation values (Epoch: 2026-06-20T09:17:20.584Z)
Latitude
0.02143°
Longitude
-24.82932°
Altitude
35,780.804 km
Speed
3.075 km/s
True Right ascension
01h 32m 26s
True Declination
0° 01' 17"
Sunlit
Object was in daylight at epoch
Visualization orbit readout
Latitude
Unknown
Longitude
Unknown
Altitude
Unknown
Speed
Unknown
Apparent Right ascension
Unknown
Apparent Declination
Unknown
Sunlit
N/A
Visualization observer readout
Local Sidereal Time
21:41:20
Azimuth
Unknown
Elevation
Unknown
Doppler factor
Unknown
Orbital elements
Apogee altitude
35,797.305 km
Perigee altitude
35,777.673 km
Semi-major axis
42,165.626 km
Eccentricity
0.00023
Inclination
0.0229°
RAAN
269.2124°
Arg. of periapsis
172.667°
True anomaly
301.21729°
Mean anomaly
301.2401°
Eccentric anomaly
301.22869°
Mean motion
0.25067 °/min
Orbital period
1,436.14 mins
BSTAR
0
Loading maneuver chart data...
Computing Atmospheric mass density...
Loading historical data...
Loading historical data...
Loading historical data...
Loading historical data...
Loading historical data...
Loading historical data...
Loading historical data...
Other satellites on launch #78 in the year 2017 (2017-12-10 UTC)

Documentation

Showing up to 5 results
|